Weather History for PAHO - June, 2013

Change the Weather History Date:

Sunday, June 16, 2013

  Actual Average Record
Temperature  
Mean Temperature 54 °F -  
Max Temperature 64 °F 56 °F 78 °F (2015)
Min Temperature 44 °F 42 °F 33 °F (1970)
Degree Days  
Heating Degree Days 12    
Growing Degree Days 4 (Base 50)    
Moisture  
Dew Point 45 °F    
Average Humidity 80    
Maximum Humidity 100    
Minimum Humidity 54    
Precipitation  
Precipitation 0.00 in - - ()
Sea Level Pressure  
Sea Level Pressure 30.23 in    
Wind  
Wind Speed 2 mph (WSW)    
Max Wind Speed 12 mph    
Max Gust Speed -    
Visibility 7 miles    
Events Fog    
Averages and records for this station are not official NWS values.
T = Trace of Precipitation, MM = Missing Value Source: NWS Daily Summary

Daily Weather History Graph

Daily Weather History Graph

Search for Another Location

Airport or City:

Trip Planner

Search our weather history database for the weather conditions in past years. The results will help you decide how hot, cold, wet, or windy it might be!

Date:

Astronomy

Jun. 16, 2013 Rise Set
Actual Time 4:45 AM AKDT 11:28 PM AKDT
Civil Twilight 3:09 AM AKDT 1:04 AM AKDT
Nautical Twilight Sun does not set Sun does not set
Astronomical Twilight Sun does not set Sun does not set
Moon 2:34 PM AKDT (6/16) 1:44 AM AKDT (6/16)
Length of Visible Light 21h 55m
Length of Day
18h 42m
Waxing Crescent, 51% of the Moon is Illuminated
Jun 16
Waxing Crescent
Jun 23
Full
Jun 29
Last Quarter
Jul 7
New
Jul 15
First Quarter

Hourly Weather History & Observations

Time (AKDT) Temp. Windchill Dew Point Humidity Pressure Visibility Wind Dir Wind Speed Gust Speed Precip Events Conditions
12:53 AM 46.9 °F - 43.0 °F 86% 30.27 in 10.0 mi Calm Calm - N/A   Clear
1:53 AM 46.0 °F - 43.0 °F 89% 30.26 in 2.5 mi Calm Calm - N/A   Clear
2:03 AM 46.4 °F - 42.8 °F 87% 30.26 in 10.0 mi Calm Calm - N/A   Clear
2:53 AM 46.0 °F - 42.1 °F 86% 30.26 in 10.0 mi Calm Calm - N/A   Clear
3:42 AM 44.6 °F - 42.8 °F 93% 30.26 in 1.5 mi Calm Calm - N/A   Clear
3:51 AM 44.6 °F - 42.8 °F 93% 30.25 in 0.8 mi Calm Calm - N/A   Clear
3:53 AM 45.0 °F - 42.1 °F 90% 30.26 in 0.5 mi Calm Calm - N/A Fog Fog
4:04 AM 46.4 °F - 42.8 °F 87% 30.25 in 2.0 mi Calm Calm - N/A   Clear
4:28 AM 44.6 °F - 42.8 °F 93% 30.25 in 1.8 mi Calm Calm - N/A   Clear
4:32 AM 46.4 °F - 42.8 °F 87% 30.25 in 3.0 mi Calm Calm - N/A   Clear
4:39 AM 46.4 °F - 42.8 °F 87% 30.25 in 1.8 mi Calm Calm - N/A   Clear
4:51 AM 44.6 °F - 42.8 °F 93% 30.25 in 0.8 mi Calm Calm - N/A   Clear
4:53 AM 44.1 °F - 42.1 °F 93% 30.25 in 0.8 mi Calm Calm - N/A   Clear
5:00 AM 44.6 °F - 42.8 °F 93% 30.25 in 1.8 mi Calm Calm - N/A   Clear
5:04 AM 44.6 °F 43.1 °F 42.8 °F 93% 30.25 in 3.0 mi NNE 3.5 mph - N/A   Clear
5:16 AM 44.6 °F 43.1 °F 41.0 °F 87% 30.25 in 1.2 mi NE 3.5 mph - N/A   Clear
5:24 AM 44.6 °F 43.1 °F 41.0 °F 87% 30.25 in 0.5 mi NE 3.5 mph - N/A Fog Fog
5:36 AM 44.6 °F 43.1 °F 42.8 °F 93% 30.25 in 2.0 mi NE 3.5 mph - N/A   Clear
5:44 AM 44.6 °F 43.1 °F 44.6 °F 100% 30.25 in 9.0 mi NE 3.5 mph - N/A   Clear
5:53 AM 46.9 °F - 44.1 °F 90% 30.25 in 10.0 mi NE 3.5 mph - N/A   Clear
6:53 AM 52.0 °F - 48.0 °F 86% 30.25 in 10.0 mi ENE 4.6 mph - N/A   Clear
7:53 AM 55.0 °F - 48.0 °F 77% 30.25 in 10.0 mi East 5.8 mph - N/A   Clear
8:53 AM 60.1 °F - 48.0 °F 64% 30.25 in 10.0 mi Calm Calm - N/A   Clear
9:53 AM 59.0 °F - 48.9 °F 69% 30.24 in 10.0 mi SSW 4.6 mph - N/A   Clear
10:53 AM 63.0 °F - 46.0 °F 54% 30.24 in 10.0 mi WSW 6.9 mph - N/A   Clear
11:53 AM 61.0 °F - 46.9 °F 60% 30.23 in 10.0 mi WSW 9.2 mph - N/A   Clear
12:53 PM 60.1 °F - 46.0 °F 60% 30.23 in 10.0 mi WSW 10.4 mph - N/A   Clear
1:53 PM 60.1 °F - 45.0 °F 57% 30.22 in 10.0 mi WSW 10.4 mph - N/A   Clear
2:53 PM 60.1 °F - 48.0 °F 64% 30.22 in 10.0 mi SW 11.5 mph - N/A   Clear
3:53 PM 60.1 °F - 46.9 °F 62% 30.21 in 10.0 mi SW 10.4 mph - N/A   Clear
4:53 PM 60.1 °F - 45.0 °F 57% 30.20 in 10.0 mi West 8.1 mph - N/A   Clear
5:53 PM 60.1 °F - 45.0 °F 57% 30.19 in 10.0 mi WSW 10.4 mph - N/A   Clear
6:53 PM 57.0 °F - 48.9 °F 74% 30.18 in 10.0 mi SW 10.4 mph - N/A   Clear
7:53 PM 55.9 °F - 46.9 °F 72% 30.17 in 10.0 mi SW 8.1 mph - N/A   Clear
8:53 PM 57.0 °F - 48.9 °F 74% 30.17 in 10.0 mi SW 5.8 mph - N/A   Clear
9:53 PM 59.0 °F - 50.0 °F 72% 30.17 in 10.0 mi Calm Calm - N/A   Clear
10:53 PM 55.0 °F - 48.0 °F 77% 30.17 in 10.0 mi NE 3.5 mph - N/A   Clear
11:53 PM 54.0 °F - 48.9 °F 83% 30.17 in 10.0 mi Calm Calm - N/A   Clear